EA5CEE Weather Reports


Display with metric or nautical units.
time (UTC)temp
F
wind
direction
speed
MPH
gust
MPH
rain 1hr
in
rain 24hr
in
rain mn
in
humidity
%
barometer
mb
20260508080029 59 280 2.0 5.0 0.00 0.00 0.00 84 1012.6
20260508074531 60 263 1.0 3.0 0.00 0.00 0.00 84 1012.2
20260508073027 60 255 1.0 3.0 0.00 0.00 0.00 83 1012.0
20260508071531 60 262 1.0 3.0 0.00 0.00 0.00 80 1011.9
20260508070032 59 259 0.0 2.0 0.00 0.00 0.00 82 1011.9
20260508064529 59 269 1.0 2.0 0.00 0.00 0.00 82 1011.8
20260508063019 58 250 0.0 3.0 0.00 0.00 0.00 83 1011.7
20260508061520 57 273 1.0 4.0 0.00 0.00 0.00 85 1011.5
20260508060021 56 260 2.0 4.0 0.00 0.00 0.00 88 1011.1
20260508054512 55 243 3.0 5.0 0.00 0.00 0.00 90 1011.2
20260508053012 55 235 4.0 6.0 0.00 0.00 0.00 91 1011.3
20260508051510 55 248 3.0 6.0 0.00 0.00 0.00 90 1011.0
20260508050009 55 245 5.0 7.0 0.00 0.00 0.00 91 1010.8
20260508044507 55 236 4.0 8.0 0.00 0.00 0.00 92 1010.6
20260508043005 55 236 5.0 7.0 0.00 0.00 0.00 94 1010.8
20260508041502 55 236 4.0 6.0 0.00 0.00 0.00 97 1010.6
20260508040003 55 249 2.0 5.0 0.00 0.00 0.00 97 1010.1
20260508034600 55 242 3.0 6.0 0.00 0.00 0.00 97 1010.2
20260508033115 55 256 3.0 7.0 0.00 0.00 0.00 97 1010.2
20260508031554 54 246 2.0 5.0 0.00 0.00 0.00 97 1010.5
20260508030106 55 244 4.0 7.0 0.00 0.00 0.00 97 1010.7
20260508024615 55 259 3.0 5.0 0.00 0.00 0.00 97 1010.7
20260508023049 55 233 3.0 6.0 0.00 0.00 0.00 97 1010.8
20260508021547 55 257 4.0 5.0 0.00 0.00 0.00 97 1010.6
20260508014549 55 248 2.0 5.0 0.00 0.00 0.00 97 1011.0
20260508013141 55 252 3.0 6.0 0.00 0.00 0.00 97 1011.2
20260508011544 55 274 3.0 6.0 0.00 0.00 0.00 97 1011.2
20260508010037 56 259 3.0 4.0 0.00 0.00 0.00 97 1011.6
20260508004536 56 264 4.0 5.0 0.00 0.00 0.00 97 1011.8
20260508003033 56 255 4.0 5.0 0.00 0.00 0.00 97 1012.0
20260508001545 56 238 3.0 7.0 0.00 0.00 0.00 97 1012.2
20260508000027 56 258 5.0 7.0 0.00 0.00 0.00 97 1012.2
20260507234525 56 267 5.0 7.0 0.00 0.00 0.00 97 1012.4
20260507233027 56 221 3.0 5.0 0.00 0.00 0.00 97 1012.5
20260507231523 57 262 4.0 6.0 0.00 0.00 0.00 97 1012.6
20260507230027 57 259 4.0 7.0 0.00 0.00 0.00 97 1012.4
20260507224527 57 271 4.0 6.0 0.00 0.00 0.00 97 1012.3
20260507223016 57 269 3.0 5.0 0.00 0.00 0.00 97 1012.2
20260507221522 57 276 1.0 2.0 0.00 0.00 0.00 97 1012.0
20260507220017 57 323 1.0 3.0 0.00 0.00 0.00 97 1011.9
20260507214513 57 355 2.0 3.0 0.00 0.00 0.00 97 1012.0
20260507213012 57 347 1.0 3.0 0.00 0.00 0.00 97 1012.0
20260507211528 57 11 2.0 6.0 0.00 0.00 0.00 97 1012.0
20260507210011 57 26 3.0 8.0 0.00 0.00 0.00 97 1012.0
20260507204509 57 61 6.0 10.0 0.00 0.00 0.00 97 1011.9
20260507203008 57 44 6.0 9.0 0.00 0.00 0.00 97 1011.8
20260507201507 58 55 11.0 16.0 0.00 0.00 0.00 97 1011.7
20260507200005 58 53 8.0 16.0 0.00 0.00 0.00 97 1011.6
20260507194503 58 46 11.0 18.0 0.00 0.00 0.00 97 1011.4
20260507193001 58 46 13.0 19.0 0.00 0.00 0.00 97 1011.2
20260507191604 58 74 15.0 18.0 0.00 0.00 0.00 97 1011.0
20260507190159 58 46 8.0 11.0 0.00 0.00 0.00 97 1010.7
20260507184557 56 27 5.0 9.0 0.00 0.00 0.00 97 1010.7
20260507183104 56 36 5.0 12.0 0.00 0.00 0.00 96 1010.6
20260507181554 57 21 6.0 11.0 0.00 0.00 0.00 94 1010.6
20260507180055 57 331 2.0 9.0 0.00 0.00 0.00 93 1010.4
20260507174551 57 305 4.0 12.0 0.00 0.00 0.00 93 1010.3
20260507173058 58 353 5.0 13.0 0.00 0.00 0.00 91 1010.5
20260507171545 60 342 11.0 17.0 0.00 0.00 0.00 87 1010.1
20260507170049 62 63 5.0 9.0 0.00 0.00 0.00 94 1009.8
20260507164538 62 111 9.0 12.0 0.00 0.00 0.00 93 1009.2
20260507163037 62 93 6.0 10.0 0.00 0.00 0.00 92 1009.1
20260507161538 62 117 5.0 10.0 0.00 0.00 0.00 90 1009.4
20260507160035 63 98 7.0 16.0 0.00 0.00 0.00 88 1009.3
20260507154534 64 77 8.0 11.0 0.00 0.00 0.00 87 1009.2
20260507153034 64 63 5.0 12.0 0.00 0.00 0.00 86 1009.1
20260507151533 64 56 9.0 14.0 0.00 0.00 0.00 87 1009.2
20260507150033 64 61 9.0 14.0 0.00 0.00 0.00 87 1009.0
20260507144531 65 54 10.0 17.0 0.00 0.00 0.00 87 1009.0
20260507143031 65 36 9.0 14.0 0.00 0.00 0.00 86 1009.0
20260507141529 65 57 9.0 13.0 0.00 0.00 0.00 87 1009.0
20260507140033 64 72 10.0 13.0 0.00 0.00 0.00 87 1009.0
20260507134527 64 77 11.0 15.0 0.00 0.00 0.00 86 1009.1
20260507133024 65 47 13.0 19.0 0.00 0.00 0.00 85 1009.3
20260507131524 65 76 12.0 17.0 0.00 0.00 0.00 84 1009.4
20260507130023 65 40 12.0 17.0 0.00 0.00 0.00 83 1009.7
20260507124522 65 82 10.0 16.0 0.00 0.00 0.00 81 1009.9
20260507123024 65 58 13.0 17.0 0.00 0.00 0.00 80 1010.0
20260507121523 65 61 14.0 17.0 0.00 0.00 0.00 80 1009.9
20260507120020 66 56 14.0 20.0 0.00 0.00 0.00 80 1009.9
20260507114519 66 56 14.0 18.0 0.00 0.00 0.00 83 1010.0
20260507113118 65 58 13.0 17.0 0.00 0.00 0.00 80 1010.4
20260507111518 66 49 15.0 18.0 0.00 0.00 0.00 80 1010.3
20260507110016 66 82 13.0 19.0 0.00 0.00 0.00 81 1010.4
20260507104515 65 74 12.0 16.0 0.00 0.00 0.00 80 1010.6
20260507103014 65 63 12.0 16.0 0.00 0.00 0.00 80 1010.8
20260507101514 65 58 11.0 19.0 0.00 0.00 0.00 81 1010.6
20260507100015 65 63 13.0 20.0 0.00 0.00 0.00 82 1010.6
20260507094515 65 43 14.0 18.0 0.00 0.00 0.00 81 1010.7
20260507093015 65 32 13.0 19.0 0.00 0.00 0.00 82 1010.7
20260507091510 65 73 10.0 19.0 0.00 0.00 0.00 80 1010.8
20260507090010 65 69 12.0 18.0 0.00 0.00 0.00 80 1010.8
20260507084529 65 70 14.0 16.0 0.00 0.00 0.00 78 1010.9
20260507083007 65 25 8.0 14.0 0.00 0.00 0.00 79 1010.7
20260507081518 65 70 9.0 13.0 0.00 0.00 0.00 76 1010.8